Time,TemperatureF,DewpointF,PressureIn,WindDirection,WindDirectionDegrees,WindSpeedMPH,WindSpeedGustMPH,Humidity,HourlyPrecipIn,Conditions,Clouds,dailyrainin,SolarRadiationWatts/m^2,SoftwareType,DateUTC
2015-04-26 00:02:00,37.6,34.9,30.09,WSW,251,0.0,0.0,90,0.00,,,0.00,0,Wunderground v.1.15,2015-04-26 07:02:00,
2015-04-26 00:32:00,36.8,34.4,30.09,WSW,251,0.0,0.0,91,0.00,,,0.00,0,Wunderground v.1.15,2015-04-26 07:32:00,
2015-04-26 01:02:00,36.0,33.9,30.10,WSW,251,0.0,0.0,92,0.00,,,0.00,0,Wunderground v.1.15,2015-04-26 08:02:00,
2015-04-26 01:32:00,35.3,33.2,30.11,WSW,251,0.0,0.0,92,0.00,,,0.00,0,Wunderground v.1.15,2015-04-26 08:32:00,
2015-04-26 02:02:00,34.7,32.9,30.11,WSW,251,0.0,0.0,93,0.00,,,0.00,0,Wunderground v.1.15,2015-04-26 09:02:00,
2015-04-26 02:32:00,34.3,32.5,30.13,WSW,251,0.0,0.0,93,0.00,,,0.00,0,Wunderground v.1.15,2015-04-26 09:32:00,
2015-04-26 03:02:00,34.0,32.2,30.13,WSW,251,0.0,0.0,93,0.00,,,0.00,0,Wunderground v.1.15,2015-04-26 10:02:00,
2015-04-26 03:32:00,33.7,32.2,30.13,WSW,251,0.0,0.0,94,0.00,,,0.00,0,Wunderground v.1.15,2015-04-26 10:32:00,
2015-04-26 04:02:00,33.5,32.0,30.14,WSW,251,0.0,0.0,94,0.00,,,0.00,0,Wunderground v.1.15,2015-04-26 11:02:00,
2015-04-26 04:32:00,33.4,31.9,30.14,WSW,251,0.0,0.0,94,0.00,,,0.00,0,Wunderground v.1.15,2015-04-26 11:32:00,
2015-04-26 05:02:00,33.2,31.9,30.16,WSW,251,0.0,0.0,95,0.00,,,0.00,0,Wunderground v.1.15,2015-04-26 12:02:00,
2015-04-26 05:32:00,32.8,31.5,30.16,WSW,251,0.0,0.0,95,0.00,,,0.00,0,Wunderground v.1.15,2015-04-26 12:32:00,
2015-04-26 06:02:00,32.8,31.5,30.16,WSW,251,0.0,0.0,95,0.00,,,0.00,11,Wunderground v.1.15,2015-04-26 13:02:00,
2015-04-26 06:32:00,32.9,31.6,30.17,WSW,251,0.0,0.0,95,0.00,,,0.00,25,Wunderground v.1.15,2015-04-26 13:32:00,
2015-04-26 07:02:00,34.0,33.0,30.17,WSW,251,0.0,0.0,96,0.00,,,0.00,74,Wunderground v.1.15,2015-04-26 14:02:00,
2015-04-26 07:32:00,36.9,36.1,30.17,WSW,251,0.0,0.0,97,0.00,,,0.00,185,Wunderground v.1.15,2015-04-26 14:32:00,
2015-04-26 08:02:00,42.2,41.7,30.18,WSW,251,0.0,0.0,98,0.00,,,0.00,169,Wunderground v.1.15,2015-04-26 15:02:00,
2015-04-26 08:32:00,47.7,44.0,30.18,South,184,0.0,0.0,87,0.00,,,0.00,350,Wunderground v.1.15,2015-04-26 15:32:00,
2015-04-26 09:02:00,49.9,41.2,30.19,ESE,120,3.0,3.0,72,0.00,,,0.00,448,Wunderground v.1.15,2015-04-26 16:02:00,
2015-04-26 09:32:00,51.4,40.8,30.19,East,88,2.0,3.0,67,0.00,,,0.00,501,Wunderground v.1.15,2015-04-26 16:32:00,
2015-04-26 10:02:00,52.8,40.1,30.20,NNW,332,2.0,2.0,62,0.00,,,0.00,512,Wunderground v.1.15,2015-04-26 17:02:00,
2015-04-26 10:32:00,53.5,40.8,30.20,NE,49,2.0,2.0,62,0.00,,,0.00,519,Wunderground v.1.15,2015-04-26 17:32:00,
2015-04-26 11:02:00,55.0,39.6,30.21,ENE,74,2.0,2.0,56,0.00,,,0.00,563,Wunderground v.1.15,2015-04-26 18:02:00,
2015-04-26 11:32:00,55.6,37.7,30.21,ENE,63,2.0,2.0,51,0.00,,,0.00,935,Wunderground v.1.15,2015-04-26 18:32:00,
2015-04-26 12:02:00,56.7,38.8,30.21,SE,146,2.0,5.0,51,0.00,,,0.00,559,Wunderground v.1.15,2015-04-26 19:02:00,
2015-04-26 12:32:00,56.0,37.6,30.21,SE,139,1.0,1.0,50,0.00,,,0.00,503,Wunderground v.1.15,2015-04-26 19:32:00,